GOES 14

Last updated on Sun Dec 14 2025 00:02:23 GMT+0000 (Coordinated Universal Time)

1 35491U 09033A 25347.26248929 -.00000016 00000+0 00000+0 0 9996 2 35491 1.2041 85.3893 0000733 163.7878 177.4312 1.00096153 4724
UTC large
Height (km)
Speed (km/s)
/
Latitude / Longitude
Inclination (degrees)
Orbital Period (minutes)
Azimuth
Elevation
Range (km)
Doppler Factor

Next 0 passes for location: London (51.5072 / 0.1276)

Sorry there are no passes over London.